Location: Arthez
(43.0833°N, 0.2500°W)
Time: 22:11:34
(UTC+00:00)

deb Kosmos-970 - Pass Details

Date: 18 August 2022
Orbit: 900 x 1112 km, 65.8° (Epoch: 28 September)

Event Time Altitude Azimuth Distance (km) Brightness Sun altitude
Rises 22:50:47 0° 330° (NNW) 3,946 ? -31.5°
Reaches altitude 10° 22:53:48 10° 339° (NNW) 2,977 ? -31.7°
Maximum altitude 23:00:10 35° 43° (NE) 1,698 ? -32.1°
Enters shadow 23:01:48 31° 70° (ENE) 1,799 ? -32.2°
